Terminal Aerodrome Forecast
Issued by NWS

Current Version | Previous Version | Graphics & Text | Print | Product List | Glossary On
Versions: 1 2 3 4 5 6 7 8 9 10 11 12 13 14 15 16 17 18
000
FTUS41 KILN 231130
TAFLCK
TAF
KLCK 231130Z 2312/2412 00000KT 3SM BR FEW009 BKN040
     FM231300 23005KT P6SM FEW050 SCT250
     FM240100 00000KT P6SM SCT250
      TEMPO 2407/2411 3SM BR=

USA.gov is the U.S. government's official web portal to all federal, state and local government web resources and services.